Location: Chagrin Falls Park
(41.4139°N, 81.3865°W)
Time: 07:56:00
(UTC+00:00)

STARLINK-2727 - Pass Details

Date: 13 December 2021
Orbit: 546 x 548 km, 53.1° (Epoch: 22 January)

Event Time Altitude Azimuth Distance (km) Brightness Sun altitude
Rises 22:50:00 0° 311° (NW) 2,721 7.6 -9.8°
Reaches altitude 10° 22:52:26 10° 322° (NW) 1,826 6.5 -10.2°
Maximum altitude 22:56:08 31° 25° (NNE) 985 4.5 -10.9°
Enters shadow 22:58:47 16° 80° (E) 1,473 5.2 -11.3°
